Alturas, CA

7:32 AM PST on January 17, 2017 (GMT -0800)
Alturas Municipal

Weather History for KAAT - April, 2013

Change the Weather History Date:

Monday, April 8, 2013

  Actual Average Record
Temperature  
Mean Temperature 37 °F 41 °F  
Max Temperature 45 °F 56 °F 79 °F (1966)
Min Temperature 29 °F 27 °F 15 °F (1945)
Degree Days  
Heating Degree Days 28 24  
Month to date heating degree days 157 195  
Since 1 July heating degree days 5510 5887  
Cooling Degree Days 0 0  
Month to date cooling degree days 0 0  
Year to date cooling degree days 0 0  
Moisture  
Dew Point 28 °F    
Average Humidity 69    
Maximum Humidity 92    
Minimum Humidity 45    
Precipitation  
Precipitation 0.05 in 0.05 in 0.79 in (1986)
Month to date precipitation 1.11 0.38  
Year to date precipitation 2.16 5.00  
Sea Level Pressure  
Sea Level Pressure 29.89 in    
Wind  
Wind Speed 10 mph (North)    
Max Wind Speed 22 mph    
Max Gust Speed 37 mph    
Visibility 7 miles    
Events Snow    
T = Trace of Precipitation, MM = Missing Value Source: NWS Daily Summary

Daily Weather History Graph

Daily Weather History Graph

Search for Another Location

Airport or City:

Trip Planner

Search our weather history database for the weather conditions in past years. The results will help you decide how hot, cold, wet, or windy it might be!

Date:

Astronomy

Apr. 08, 2013 Rise Set
Actual Time 6:33 AM PDT 7:35 PM PDT
Civil Twilight 6:04 AM PDT 8:03 PM PDT
Nautical Twilight 5:31 AM PDT 8:37 PM PDT
Astronomical Twilight 4:55 AM PDT 9:13 PM PDT
Moon 5:27 AM PDT (4/8) 6:14 PM PDT (4/8)
Length of Visible Light 13h 59m
Length of Day
13h 02m
Waning Crescent, 3% of the Moon is Illuminated
Apr 8
Waning Crescent
Apr 10
New
Apr 18
First Quarter
Apr 25
Full
May 2
Last Quarter

Hourly Weather History & Observations

Time (PDT) Temp. Windchill Dew Point Humidity Pressure Visibility Wind Dir Wind Speed Gust Speed Precip Events Conditions
12:27 AM 33.8 °F 26.4 °F 30.2 °F 87% 29.72 in 5.0 mi NNW 9.2 mph - 0.00 in Snow Light Snow
12:34 AM 33.8 °F 28.6 °F 30.2 °F 87% 29.72 in 5.0 mi NW 5.8 mph - 0.00 in Snow Light Snow
12:55 AM 33.1 °F 28.7 °F 30.9 °F 92% 29.73 in 9.0 mi West 4.6 mph - 0.00 in   Overcast
1:02 AM 33.8 °F 29.6 °F 30.2 °F 87% 29.74 in 9.0 mi West 4.6 mph - 0.00 in Snow Light Snow
1:15 AM 33.8 °F 27.0 °F 32.0 °F 93% 29.75 in 1.8 mi North 8.1 mph - 0.00 in Snow Light Snow
1:19 AM 33.8 °F 24.8 °F 30.2 °F 87% 29.75 in 1.5 mi NNW 12.7 mph 17.3 mph 0.01 in Snow Light Snow
1:44 AM 32.0 °F 21.6 °F 30.2 °F 93% 29.75 in 2.0 mi North 15.0 mph 18.4 mph 0.02 in Snow Light Snow
1:55 AM 32.0 °F 22.1 °F 30.0 °F 92% 29.74 in 2.0 mi North 13.8 mph 19.6 mph 0.02 in Snow Light Snow
2:02 AM 32.0 °F 21.6 °F 30.2 °F 93% 29.75 in 1.5 mi North 15.0 mph 21.9 mph 0.01 in Snow Light Snow
2:24 AM 32.0 °F 21.6 °F 30.2 °F 93% 29.75 in 1.5 mi North 15.0 mph 23.0 mph 0.02 in Snow Light Snow
2:31 AM 32.0 °F 20.8 °F 28.4 °F 87% 29.75 in 2.0 mi North 17.3 mph 25.3 mph 0.02 in Snow Light Snow
2:53 AM 32.0 °F 21.6 °F 28.4 °F 87% 29.76 in 4.0 mi North 15.0 mph 25.3 mph 0.02 in Snow Light Snow
2:55 AM 32.0 °F 20.8 °F 28.9 °F 88% 29.76 in 4.0 mi North 17.3 mph 25.3 mph 0.02 in Snow Light Snow
3:23 AM 32.0 °F 20.8 °F 28.4 °F 87% 29.78 in 5.0 mi North 17.3 mph 28.8 mph 0.00 in Snow Light Snow
3:55 AM 30.9 °F 20.7 °F 28.9 °F 92% 29.80 in 3.0 mi NNW 13.8 mph - 0.00 in Snow Light Snow
4:34 AM 30.2 °F 22.6 °F 28.4 °F 93% 29.82 in 2.0 mi North 8.1 mph - 0.00 in Snow Light Snow
4:48 AM 30.2 °F 19.8 °F 28.4 °F 93% 29.82 in 3.0 mi NNW 13.8 mph - 0.01 in Snow Light Snow
4:55 AM 30.0 °F 19.1 °F 28.0 °F 92% 29.85 in 4.0 mi NNW 15.0 mph 20.7 mph 0.01 in Snow Light Snow
5:07 AM 30.2 °F 19.8 °F 28.4 °F 93% 29.83 in 2.0 mi NNW 13.8 mph - 0.00 in Snow Light Snow
5:17 AM 30.2 °F 20.2 °F 26.6 °F 86% 29.83 in 9.0 mi North 12.7 mph - 0.00 in   Overcast
5:27 AM 30.2 °F 21.3 °F 26.6 °F 86% 29.84 in 10.0 mi NNW 10.4 mph - 0.00 in   Overcast
5:55 AM 30.0 °F 19.5 °F 26.1 °F 85% 29.88 in 10.0 mi NNW 13.8 mph - 0.00 in   Overcast
6:06 AM 30.2 °F 19.3 °F 24.8 °F 80% 29.86 in 10.0 mi NNW 15.0 mph - N/A   Overcast
6:55 AM 30.0 °F 19.1 °F 25.0 °F 82% 29.94 in 10.0 mi NNW 15.0 mph - N/A   Overcast
7:55 AM 30.0 °F 22.4 °F 24.1 °F 79% 29.97 in 10.0 mi North 8.1 mph - N/A   Overcast
8:55 AM 30.0 °F 21.1 °F 25.0 °F 82% 30.00 in 10.0 mi NNW 10.4 mph - N/A   Overcast
9:55 AM 34.0 °F 27.2 °F 27.0 °F 75% 30.00 in 10.0 mi North 8.1 mph - N/A   Partly Cloudy
10:55 AM 36.0 °F 32.1 °F 28.9 °F 76% 30.00 in 10.0 mi North 4.6 mph - N/A   Partly Cloudy
12:55 PM 37.0 °F 34.5 °F 28.0 °F 70% 30.01 in 10.0 mi South 3.5 mph - 0.00 in   Overcast
1:55 PM 39.9 °F 36.7 °F 30.9 °F 70% 29.99 in 10.0 mi ENE 4.6 mph - 0.00 in   Overcast
2:55 PM 44.1 °F 39.0 °F 28.0 °F 53% 29.98 in 10.0 mi NNE 9.2 mph - N/A   Overcast
3:55 PM 43.0 °F 36.8 °F 26.1 °F 51% 29.99 in 10.0 mi North 11.5 mph - N/A   Overcast
4:55 PM 44.1 °F 39.0 °F 25.0 °F 47% 29.99 in 10.0 mi North 9.2 mph - N/A   Overcast
5:55 PM 44.1 °F 38.1 °F 24.1 °F 45% 30.00 in 10.0 mi North 11.5 mph - N/A   Mostly Cloudy
6:55 PM 42.1 °F 35.2 °F 26.1 °F 53% 30.03 in 10.0 mi North 12.7 mph 21.9 mph N/A   Overcast
7:55 PM 39.9 °F 31.8 °F 26.1 °F 58% 30.06 in 10.0 mi NNE 15.0 mph 23.0 mph N/A   Mostly Cloudy
8:55 PM 39.0 °F 30.6 °F 25.0 °F 57% 30.09 in 10.0 mi North 15.0 mph 21.9 mph N/A   Clear
9:55 PM 37.9 °F 30.9 °F 24.1 °F 57% 30.12 in 10.0 mi NNE 10.4 mph 18.4 mph N/A   Clear
10:55 PM 35.1 °F - 23.0 °F 61% 30.13 in 10.0 mi Calm Calm - N/A   Partly Cloudy
11:55 PM 33.1 °F - 25.0 °F 72% 30.13 in 10.0 mi Calm Calm - N/A   Mostly Cloudy